User: anonymous   Login
Location: Caltech
(34.1382°N, 118.1253°W)
Time: 21:41:59
(UTC-07:00)
Language:

SO-50 - Orbit

View from above orbital plane
View from above orbital plane
View from above satellite
View from above satellite

Ground track
Ground track

The orbit data is extracted from the following two-line orbital elements,

1 27607U 02058C   17232.60179804 +.00000033 +00000-0 +25273-4 0  9996
2 27607 064.5554 288.7212 0031094 063.5659 296.8628 14.75348720788481
Epoch (UTC): 20 August 2017 14:26:35
Eccentricity: 0.0031094
inclination: 64.5554°
perigee height: 622 km
apogee height: 666 km
right ascension of ascending node: 288.7212°
argument of perigee: 63.5659°
revolutions per day: 14.75348720
mean anomaly at epoch: 296.8628°
orbit number at epoch: 78848

The dashed part of the orbit path shows where the satellite is in the earth's shadow,  

DLR